Total_Precipitation_Accumulation
1.61 1.71 1.76 1.79 1.81 1.75 1.75 1.81 1.88 1.82 1.66 1.47 1.44 1.41 1.43 1.45 1.57 1.24 1.23 1.40 1.27 1.18 1.11 1.05 1.03 0.98 0.93 0.90 0.88 0.87 0.89 0.94 1.02 1.09 1.16 1.24 1.38 1.57
1.35 1.48 1.58 1.67 1.79 1.82 1.87 1.88 1.89 1.89 1.81 1.58 1.52 1.51 1.46 1.42 1.66 1.40 1.36 1.42 1.23 1.09 0.99 0.91 0.88 0.83 0.80 0.80 0.81 0.81 0.79 0.78 0.80 0.85 0.91 0.98 1.07 1.20
1.15 1.26 1.36 1.41 1.52 1.60 1.66 1.68 1.75 1.79 1.78 1.65 1.54 1.54 1.49 1.48 1.52 1.39 1.30 1.22 1.17 1.09 0.94 0.86 0.83 0.78 0.75 0.76 0.77 0.77 0.76 0.75 0.75 0.77 0.80 0.85 0.89 0.95
0.93 1.02 1.10 1.13 1.22 1.25 1.34 1.41 1.46 1.52 1.58 1.67 1.72 1.64 1.55 1.53 1.44 1.30 1.13 1.00 0.98 0.99 0.89 0.84 0.84 0.84 0.84 0.82 0.79 0.77 0.72 0.66 0.65 0.68 0.72 0.72 0.72 0.76
0.73 0.80 0.87 0.91 0.94 0.96 1.02 1.08 1.17 1.27 1.44 1.54 1.59 1.60 1.56 1.57 1.55 1.29 1.13 1.11 0.87 0.84 0.79 0.80 0.81 0.80 0.79 0.76 0.71 0.68 0.64 0.56 0.49 0.49 0.54 0.59 0.62 0.62
0.62 0.66 0.70 0.71 0.70 0.73 0.76 0.83 0.94 1.14 1.31 1.41 1.38 1.38 1.43 1.38 1.45 1.36 1.24 1.14 0.97 0.73 0.66 0.61 0.64 0.65 0.64 0.59 0.57 0.55 0.55 0.55 0.51 0.47 0.45 0.44 0.44 0.45
0.52 0.52 0.52 0.54 0.56 0.57 0.57 0.67 0.82 1.03 1.15 1.25 1.28 1.21 1.20 1.21 1.24 1.18 1.18 1.14 1.00 0.81 0.72 0.58 0.53 0.55 0.59 0.58 0.57 0.51 0.46 0.43 0.42 0.41 0.39 0.37 0.37 0.37
0.50 0.43 0.40 0.40 0.43 0.45 0.48 0.55 0.67 0.79 0.90 1.01 1.08 1.10 1.09 1.08 1.14 1.15 1.14 1.14 1.09 0.91 0.85 0.74 0.59 0.65 0.64 0.60 0.54 0.47 0.47 0.46 0.45 0.44 0.43 0.41 0.39 0.37
0.53 0.52 0.43 0.35 0.42 0.46 0.47 0.52 0.55 0.59 0.69 0.84 0.95 0.97 0.98 1.05 1.16 1.16 1.16 1.14 1.10 0.95 0.95 0.93 0.78 0.76 0.61 0.51 0.51 0.45 0.43 0.45 0.46 0.44 0.45 0.44 0.44 0.43
0.51 0.52 0.53 0.52 0.47 0.46 0.45 0.49 0.54 0.61 0.67 0.73 0.87 0.89 0.83 0.90 1.06 1.10 1.07 1.03 0.98 0.93 0.96 1.00 0.81 0.72 0.56 0.62 0.56 0.44 0.39 0.43 0.44 0.39 0.39 0.40 0.42 0.44
0.41 0.41 0.42 0.45 0.45 0.46 0.47 0.54 0.57 0.62 0.58 0.64 0.70 0.76 0.83 0.86 0.87 0.92 1.01 1.12 1.10 0.97 0.94 1.01 0.88 0.74 0.64 0.69 0.63 0.51 0.47 0.50 0.49 0.39 0.34 0.33 0.34 0.38
0.38 0.38 0.38 0.35 0.35 0.35 0.41 0.56 0.67 0.64 0.58 0.62 0.78 0.94 0.99 0.97 0.87 0.89 1.01 1.10 1.10 1.11 0.97 0.98 0.98 0.85 0.78 0.65 0.65 0.66 0.67 0.72 0.64 0.49 0.38 0.35 0.36 0.39
0.43 0.43 0.40 0.32 0.28 0.29 0.36 0.49 0.55 0.53 0.60 0.78 0.98 1.08 1.06 0.98 0.87 0.82 0.90 1.01 1.08 1.13 0.94 0.93 0.99 1.01 1.03 0.85 0.64 0.69 0.80 0.91 0.90 0.73 0.52 0.44 0.40 0.38
0.40 0.39 0.35 0.32 0.27 0.29 0.31 0.38 0.41 0.50 0.71 0.93 1.03 1.00 0.85 0.74 0.73 0.70 0.72 0.82 0.94 0.94 0.86 0.88 0.99 1.04 1.07 0.98 0.79 0.72 0.84 1.00 1.06 0.97 0.78 0.64 0.57 0.49
0.34 0.33 0.33 0.34 0.35 0.41 0.42 0.41 0.48 0.65 0.82 0.93 0.96 0.87 0.74 0.66 0.64 0.66 0.63 0.73 0.78 0.70 0.61 0.66 0.83 0.91 1.02 1.01 0.98 1.01 1.08 1.20 1.20 1.15 1.03 0.84 0.70 0.62
0.34 0.38 0.47 0.52 0.53 0.54 0.58 0.64 0.68 0.71 0.73 0.83 0.83 0.75 0.64 0.59 0.58 0.57 0.62 0.67 0.74 0.73 0.63 0.59 0.68 0.84 0.97 0.96 1.05 1.16 1.21 1.40 1.39 1.27 1.20 1.11 0.94 0.77
0.32 0.46 0.64 0.69 0.68 0.65 0.63 0.64 0.68 0.66 0.69 0.70 0.68 0.65 0.62 0.57 0.55 0.51 0.54 0.58 0.66 0.68 0.66 0.61 0.64 0.69 0.70 0.78 0.92 1.01 1.10 1.25 1.35 1.30 1.25 1.31 1.26 1.03
0.36 0.57 0.68 0.70 0.71 0.63 0.59 0.56 0.55 0.56 0.54 0.56 0.58 0.59 0.59 0.56 0.55 0.52 0.51 0.54 0.59 0.58 0.57 0.56 0.59 0.63 0.60 0.58 0.77 0.92 0.97 1.14 1.24 1.18 1.11 1.24 1.36 1.15
0.38 0.52 0.59 0.64 0.63 0.55 0.52 0.52 0.52 0.51 0.48 0.48 0.52 0.53 0.54 0.53 0.53 0.53 0.51 0.51 0.54 0.54 0.50 0.47 0.51 0.57 0.61 0.69 0.79 0.92 0.95 1.02 1.04 1.03 1.01 1.04 1.22 1.18
0.38 0.44 0.48 0.51 0.52 0.49 0.46 0.45 0.45 0.46 0.45 0.44 0.45 0.47 0.49 0.48 0.46 0.46 0.46 0.43 0.46 0.49 0.48 0.46 0.47 0.53 0.58 0.66 0.84 0.95 0.93 0.82 0.78 0.85 0.88 0.94 1.04 1.04
0.36 0.38 0.39 0.39 0.39 0.40 0.42 0.42 0.39 0.39 0.39 0.38 0.38 0.41 0.43 0.42 0.42 0.38 0.36 0.32 0.36 0.41 0.45 0.47 0.45 0.42 0.44 0.49 0.67 0.82 0.86 0.90 0.80 0.72 0.72 0.78 0.78 0.69
0.31 0.35 0.35 0.33 0.32 0.31 0.31 0.32 0.33 0.32 0.30 0.31 0.36 0.40 0.41 0.40 0.37 0.33 0.32 0.35 0.37 0.39 0.40 0.40 0.38 0.37 0.40 0.49 0.64 0.77 0.77 0.70 0.68 0.71 0.69 0.55 0.45 0.47
0.32 0.33 0.30 0.29 0.28 0.27 0.27 0.27 0.27 0.28 0.28 0.30 0.34 0.38 0.37 0.35 0.32 0.29 0.26 0.25 0.26 0.28 0.33 0.36 0.35 0.35 0.38 0.42 0.49 0.55 0.54 0.49 0.41 0.42 0.54 0.59 0.49 0.48